Zurück zum Katalog

ONEWEB-0676

AktivKommunikationPO
NORAD 56712·PAYLOAD·🇬🇧 United Kingdom

Gestartet May 20, 2023 von Vandenberg Space Force Base

Loading…

Nächste Überflüge (nächste 24 Stunden)

TLE

AktuellSource: CelesTrak SupGP

Epoche: Sep 14, 2026, 19:33 UTC

1 56712C 23068C   26257.81474954  .00001978  00000+0  51797-2 0  2576
2 56712  87.9147 210.9837 0002349  85.5686 300.5391 13.16591319    16

Verfolge ONEWEB-0676 in Echtzeit mit AllMySat

Download on the App Store